Theta_e
345 345 346 347 348 349 349 351 350 349 346 345 345 346 347 347 346 347 346 346 346 344 342 341 344 345 347 346 345 347 347 346 346 346 346 345 346 345 345 345 344 344 344 344 343 343 341 338 338 337 338 338 339 333 329 332 337 335 334 335 336 336
343 344 346 347 348 349 348 348 347 344 341 340 341 342 342 342 347 341 346 343 340 343 341 341 343 346 345 346 345 347 347 347 347 346 346 345 345 345 345 345 344 344 343 342 343 334 336 339 340 338 340 339 336 329 328 331 336 334 335 334 336 340
344 344 345 346 347 347 346 346 345 340 338 339 341 342 338 340 336 338 339 342 343 342 342 341 341 344 345 346 346 346 347 346 347 346 346 347 345 345 345 345 344 343 343 343 336 332 329 329 329 338 340 336 330 327 326 329 334 333 333 335 335 343
344 343 343 344 345 345 343 343 342 339 338 337 337 337 336 337 336 336 338 339 339 343 341 338 343 344 344 340 340 344 345 346 346 346 346 345 345 345 345 344 343 342 342 341 331 329 328 326 327 327 327 327 328 327 326 328 333 332 333 337 337 343
343 343 343 344 343 342 342 340 339 339 337 336 334 334 333 333 335 336 337 337 338 339 340 337 337 337 335 336 337 339 341 340 341 339 345 338 337 341 340 340 339 339 335 333 331 328 327 326 329 328 326 324 324 326 326 330 333 332 333 335 338 342
342 342 343 342 341 344 341 338 337 337 335 335 332 333 333 333 334 335 335 338 339 337 338 337 337 335 334 335 335 337 337 339 339 339 341 337 336 335 338 338 337 338 336 335 333 332 330 330 328 327 326 323 322 324 326 332 332 331 332 335 339 343
342 341 341 343 343 342 340 340 338 336 334 334 334 333 333 333 334 336 337 340 339 336 335 335 334 335 335 334 333 336 337 337 335 335 338 338 336 337 337 335 335 336 336 335 333 332 331 331 330 328 327 325 323 326 331 331 331 330 332 335 340 342
340 339 338 340 340 339 339 338 340 341 336 339 336 335 334 334 336 335 338 339 341 337 335 335 334 335 336 333 334 337 337 335 336 336 335 335 336 335 334 334 336 334 333 334 333 333 331 329 330 331 330 327 326 326 329 331 330 330 332 335 338 341
339 338 337 338 338 339 339 339 339 336 334 341 333 333 336 337 335 335 336 336 340 336 336 336 335 335 337 337 336 336 334 334 334 334 334 333 336 333 333 334 335 334 333 333 333 330 330 331 329 331 329 329 328 326 326 330 331 330 332 335 337 340
339 336 336 337 336 337 339 339 338 337 337 340 333 336 339 335 335 334 333 334 334 337 335 335 335 335 334 336 335 335 334 334 333 334 333 332 336 334 332 332 333 334 335 334 332 332 332 330 329 329 329 328 327 326 325 327 332 331 332 335 336 339
340 340 336 335 334 335 337 338 339 338 338 337 337 338 336 334 334 334 333 333 333 337 335 335 334 336 336 335 335 335 333 332 332 332 332 334 335 332 332 332 331 332 333 333 334 334 332 330 329 327 328 328 326 325 325 326 332 333 332 333 335 338
338 338 337 335 337 336 337 338 339 338 337 337 337 334 333 332 337 334 336 334 335 337 337 335 335 334 335 334 334 332 333 331 331 332 332 333 332 331 330 332 334 334 332 336 333 334 332 329 328 326 325 325 325 325 324 324 328 333 332 332 334 337
337 336 335 335 336 336 336 338 337 338 338 338 336 334 333 333 333 334 334 336 336 337 335 335 333 334 336 334 333 332 333 332 331 332 330 331 331 329 330 331 330 331 329 330 332 332 332 331 328 326 327 325 329 327 324 323 325 329 333 332 332 334
335 334 334 335 335 334 335 336 337 337 340 336 334 333 335 334 335 335 334 335 336 336 335 334 334 333 334 333 331 330 332 332 331 330 330 330 331 330 329 329 329 328 331 330 330 331 329 330 329 328 325 329 329 330 330 327 325 325 332 333 331 332
334 332 335 334 334 332 333 336 336 335 336 336 334 334 334 334 333 336 336 334 335 335 335 334 335 336 334 332 332 330 331 331 331 331 329 328 328 328 327 327 328 329 328 328 328 328 329 328 327 326 329 328 328 330 330 329 330 330 327 330 333 331
331 329 328 329 328 329 330 332 332 338 335 335 333 332 331 332 333 334 337 334 334 335 335 334 333 334 332 333 333 330 329 329 331 329 327 329 329 329 328 326 327 329 326 327 327 326 327 326 327 330 331 329 328 329 329 329 329 330 330 328 328 330
329 329 329 329 328 328 329 329 329 329 334 333 330 330 330 331 333 333 333 333 333 335 334 335 335 333 332 332 332 330 330 331 331 329 329 330 330 328 328 330 327 329 329 327 329 329 327 326 327 329 330 327 330 331 330 329 329 330 331 329 328 329
328 328 327 327 327 325 326 327 327 329 331 327 328 329 330 330 330 330 332 332 333 336 335 333 334 332 331 333 332 330 329 329 329 330 328 327 327 328 328 327 326 327 329 327 327 325 327 325 329 329 328 329 330 331 332 331 330 331 330 329 327 328
328 328 327 328 327 326 324 323 323 323 322 320 321 326 324 324 326 326 328 330 332 331 333 333 333 333 331 332 330 330 329 328 328 328 328 325 325 327 329 327 327 326 329 327 326 327 327 326 328 328 328 329 330 331 329 331 331 330 331 330 329 330
328 328 328 326 323 318 319 320 319 320 322 323 324 325 324 322 322 323 325 325 324 324 325 326 330 333 332 330 327 329 328 328 327 325 325 325 324 325 326 327 329 328 324 327 328 330 330 327 325 325 324 326 329 330 333 330 329 330 326 327 328 325
327 327 324 322 319 317 317 319 318 316 319 319 322 322 322 321 321 321 323 323 321 320 321 323 323 324 325 332 328 328 328 328 328 326 326 326 326 328 329 327 327 326 326 326 325 327 327 326 322 321 323 325 326 329 331 331 326 327 328 328 327 325
326 325 324 323 322 321 320 319 314 315 317 318 321 319 319 320 321 323 322 323 324 323 323 323 323 320 325 322 323 326 327 328 327 326 327 327 327 329 327 326 329 328 327 325 324 325 326 325 321 318 318 318 320 325 329 329 328 327 327 329 330 327
326 325 324 326 323 322 321 321 319 319 320 320 321 322 321 319 319 320 321 323 324 324 322 322 323 327 321 322 324 324 325 325 326 328 328 327 325 326 325 326 324 324 323 327 326 328 328 325 319 320 319 316 315 315 320 323 325 329 330 328 327 327
326 325 325 324 323 322 323 323 323 322 322 321 320 322 320 319 319 318 319 322 322 321 322 321 321 321 321 320 319 320 319 319 318 322 325 324 323 324 323 323 323 323 323 320 322 323 328 326 323 320 314 313 314 313 312 315 319 325 330 330 331 330
324 324 323 324 323 323 322 320 320 320 320 319 318 317 317 316 317 320 320 319 322 323 321 320 321 321 322 319 317 316 317 316 316 317 319 320 321 323 324 324 323 322 321 321 321 322 325 328 327 325 317 315 312 310 311 315 319 321 325 324 328 333
323 323 322 322 322 322 320 318 316 315 313 313 313 314 312 313 315 315 316 319 320 321 322 320 320 320 321 320 317 318 315 314 314 315 316 316 315 314 314 319 325 324 323 323 321 319 319 324 323 324 323 320 317 311 313 316 315 313 323 325 325 329
323 323 323 322 323 322 318 317 315 314 314 314 314 315 315 316 316 316 318 318 320 319 319 319 319 319 318 319 316 315 314 315 315 315 317 315 316 316 317 317 318 316 320 323 321 317 318 320 322 323 324 321 322 322 320 316 312 313 313 318 323 323
323 324 323 322 322 321 319 317 315 315 316 316 316 315 315 316 318 319 318 317 317 317 319 320 317 315 316 318 316 314 314 313 313 315 317 315 315 316 318 319 318 315 315 315 317 319 318 320 318 319 322 318 319 321 320 320 317 314 311 311 315 321
323 323 322 321 321 320 319 317 315 316 318 317 317 317 317 318 317 318 316 316 314 314 314 314 314 313 313 315 317 315 314 314 313 313 317 316 316 317 315 315 315 315 313 313 314 313 311 310 312 315 318 318 319 318 319 318 318 317 314 310 312 314
322 323 321 320 320 319 318 318 315 316 317 316 316 315 316 315 315 317 316 314 313 313 314 314 314 314 314 316 314 314 314 315 315 316 316 315 315 315 315 315 315 315 314 314 315 314 311 310 312 311 313 315 315 317 318 316 316 316 316 314 309 311
323 323 321 319 319 318 317 317 315 318 317 315 314 314 314 313 315 314 314 314 312 313 314 313 315 316 315 314 316 318 315 316 318 320 318 316 316 317 316 316 317 316 315 313 312 313 313 312 310 310 311 311 309 310 309 308 308 310 309 306 305 306
323 323 320 319 318 318 317 318 316 318 316 316 315 315 313 314 315 314 314 314 314 314 312 314 314 312 313 315 314 315 316 314 315 313 311 315 316 316 316 315 314 314 313 314 314 314 311 310 311 311 310 310 310 311 310 309 311 310 308 307 307 305
322 322 319 318 318 317 316 317 318 318 316 317 316 314 314 314 315 314 313 315 313 312 312 314 313 315 313 312 314 315 312 311 312 314 314 313 313 313 314 314 314 313 313 312 311 310 309 309 309 310 310 310 310 310 309 310 311 312 311 310 307 303
322 322 319 318 318 317 316 317 317 317 316 317 315 315 315 314 315 314 315 315 314 314 313 313 314 313 314 315 314 316 314 312 312 313 313 311 312 314 314 314 313 312 312 311 311 310 310 309 309 309 310 308 308 308 307 310 309 310 309 308 305 304
321 320 317 317 317 317 316 317 317 318 316 317 317 315 316 316 316 314 315 316 315 315 313 314 315 314 317 315 314 315 313 313 313 313 312 312 314 312 312 313 313 312 312 311 311 311 309 308 309 308 308 309 309 307 308 308 308 310 310 309 308 307
317 319 321 319 318 317 317 317 316 318 317 318 318 317 317 317 316 315 315 316 316 315 315 316 317 316 315 317 315 315 313 312 313 312 313 312 312 312 313 312 312 312 311 316 312 311 309 308 307 308 308 307 306 305 308 307 308 308 307 308 308 308
319 320 321 320 320 320 320 319 317 318 317 317 318 316 317 316 316 317 316 315 316 316 316 317 317 316 315 317 316 315 313 313 313 313 313 313 313 311 312 312 311 310 310 313 313 311 310 309 309 308 308 306 305 305 306 307 307 308 306 305 308 306
Wind_Speed
7 8 8 8 7 7 10 14 13 16 15 11 7 8 10 10 8 7 6 5 4 3 3 2 2 3 5 4 5 6 7 8 8 9 8 8 8 7 7 7 7 6 5 5 3 3 3 5 5 7 8 10 11 4 3 2 1 5 3 5 7 7
7 8 8 7 6 6 7 10 9 10 7 5 4 5 4 3 7 3 5 4 2 2 3 1 1 3 2 3 4 6 6 7 6 8 7 6 7 7 6 7 6 5 5 5 4 2 2 5 6 7 8 9 7 5 4 2 2 6 3 2 5 9
8 8 9 8 7 6 8 7 9 9 5 4 5 4 3 2 2 3 3 3 3 4 3 2 1 3 0 5 3 6 5 6 6 6 6 5 6 6 6 6 6 5 4 4 2 2 3 2 3 7 8 6 6 6 4 2 2 5 5 3 3 11
9 8 9 7 7 7 7 6 7 8 6 5 5 4 3 3 2 2 3 4 4 3 3 2 2 4 2 1 2 3 2 5 5 5 5 4 5 5 5 6 5 4 3 3 2 3 4 3 4 4 5 5 5 7 4 1 4 5 5 5 5 12
7 8 8 7 8 7 7 7 7 7 6 4 2 3 1 2 2 2 3 4 4 2 3 1 3 1 1 2 2 2 2 2 2 2 3 2 2 2 2 2 3 3 3 2 3 3 3 3 4 5 5 5 5 5 5 2 5 6 5 5 6 12
8 7 6 7 7 7 8 7 7 7 6 5 2 3 1 1 3 2 2 4 5 4 4 3 4 2 1 2 3 2 2 2 2 2 2 1 1 2 3 3 3 4 4 4 4 5 3 3 5 5 5 4 5 5 6 1 5 6 5 5 6 11
6 5 5 6 5 5 5 5 6 6 6 3 2 2 2 3 4 4 3 3 5 5 4 3 3 5 3 2 2 1 4 3 4 3 3 1 1 3 5 2 4 5 5 4 4 3 3 5 6 6 5 4 4 6 6 5 6 6 6 6 6 11
5 6 6 6 6 6 6 6 6 6 5 5 5 4 4 4 2 5 4 3 3 5 5 3 1 3 5 4 4 3 5 5 3 4 5 4 3 3 3 2 2 3 2 1 1 2 3 4 4 7 5 4 4 6 4 5 7 7 7 6 6 9
7 6 6 6 6 5 6 6 5 6 6 7 4 4 5 4 3 3 3 3 2 4 5 4 3 2 3 3 3 5 5 4 3 3 2 0 3 3 2 2 1 1 0 1 1 2 3 3 4 4 5 4 3 4 5 5 6 6 6 6 6 8
8 8 7 7 5 6 6 7 6 5 6 6 5 5 4 5 5 5 3 3 1 3 4 5 4 3 4 3 3 5 6 4 4 3 4 5 5 4 2 3 2 1 1 1 1 3 2 4 7 3 4 5 3 5 5 6 8 8 7 6 6 7
7 8 7 7 6 7 6 6 6 5 4 5 4 4 4 3 3 3 3 3 3 2 3 3 3 3 4 3 4 4 4 4 4 4 2 3 2 2 2 2 2 3 2 2 1 1 1 2 3 6 1 2 4 5 5 5 8 8 8 7 7 6
7 7 8 7 6 7 6 7 6 5 5 5 5 4 4 2 2 0 3 3 3 4 3 2 3 3 5 4 4 4 3 4 4 4 2 1 1 1 2 2 0 1 2 1 2 3 2 1 2 4 5 3 3 5 5 5 7 9 9 8 8 7
6 4 5 7 8 7 6 7 7 5 5 5 5 4 3 3 2 2 2 4 3 4 3 3 2 3 3 5 3 4 4 4 5 3 2 1 0 0 0 1 0 0 2 2 2 2 2 0 1 3 2 3 6 6 5 3 5 7 7 8 8 7
7 6 4 3 3 5 6 6 5 5 6 6 5 5 4 4 3 2 2 2 5 5 5 4 3 2 3 4 3 3 4 3 2 2 2 2 1 0 1 2 1 1 3 3 3 2 0 2 2 3 3 2 3 4 6 7 6 4 4 7 7 7
6 6 4 4 3 3 4 7 6 5 6 7 6 5 5 4 3 2 2 2 4 4 4 3 1 3 3 3 2 1 2 2 2 4 2 1 1 1 1 2 1 2 2 1 1 1 1 3 3 2 3 2 4 4 4 4 6 5 5 2 0 5
6 6 7 7 5 6 7 6 6 6 5 6 7 6 5 5 5 3 4 3 3 3 3 4 3 4 5 3 3 1 1 1 2 2 2 1 1 1 2 1 1 2 1 1 1 3 4 4 3 3 4 4 3 5 4 4 4 4 5 6 6 6
8 7 6 7 6 5 7 6 6 8 8 6 6 5 4 5 5 4 4 4 3 3 4 4 5 4 4 3 4 4 4 2 3 2 2 1 1 2 2 3 1 1 1 1 3 2 2 3 3 2 2 3 2 3 2 3 3 3 5 6 4 4
7 6 6 6 5 6 5 5 5 6 6 5 3 6 6 4 4 4 5 4 4 4 5 4 5 5 5 4 4 3 2 1 3 4 2 2 2 1 2 2 1 1 2 2 3 2 3 2 2 2 3 3 2 2 1 2 3 3 5 5 4 2
7 7 6 5 5 5 5 4 5 5 5 5 5 5 6 5 5 5 5 3 3 3 5 5 5 5 5 4 2 4 3 2 2 3 4 1 0 1 0 1 1 2 3 5 3 1 1 2 1 1 2 2 2 2 2 2 1 3 4 4 3 4
7 7 6 6 6 6 6 5 5 5 6 7 7 7 7 7 7 7 6 5 5 5 4 4 3 6 5 4 2 4 3 1 1 0 2 4 3 1 0 0 2 1 1 3 1 0 2 2 2 2 2 3 3 1 1 2 3 1 1 3 3 3
7 6 7 7 6 6 5 4 3 5 7 6 7 6 7 6 6 6 5 5 5 5 5 5 4 4 4 5 4 3 3 2 1 1 0 1 2 4 4 3 2 2 1 2 2 0 1 2 2 2 1 2 3 3 2 1 2 3 3 3 1 2
6 7 7 7 7 6 4 5 6 6 5 6 6 7 6 6 6 5 5 4 4 3 3 2 2 3 4 4 5 4 5 5 4 3 2 2 1 0 1 2 2 3 2 1 2 1 2 3 0 2 1 0 2 3 3 3 1 3 2 2 1 1
7 7 7 5 6 5 3 4 4 3 6 4 4 6 6 5 5 6 4 4 4 3 2 2 2 3 4 6 5 4 4 4 2 2 2 4 3 3 1 2 2 3 2 3 1 1 3 1 1 2 1 2 0 1 3 3 2 2 2 1 2 2
7 5 5 6 7 6 7 7 8 8 7 7 7 6 6 5 6 6 5 3 4 4 4 6 6 5 7 6 6 4 4 6 6 3 3 3 3 3 3 3 3 3 4 2 1 2 1 2 1 5 1 2 1 1 1 3 1 2 1 0 1 1
6 6 6 8 9 8 9 9 8 7 8 8 7 6 7 6 5 4 4 4 5 6 6 6 6 6 7 5 4 5 5 5 6 6 6 4 2 2 2 3 3 3 2 4 2 1 1 0 0 1 2 2 2 1 1 1 1 1 1 1 1 2
4 5 8 8 9 8 9 10 9 8 8 7 7 6 7 7 6 6 4 3 6 5 5 5 6 6 6 4 5 5 4 5 6 7 6 5 5 4 3 2 1 3 2 1 4 2 2 3 1 1 1 0 1 2 3 1 2 1 2 1 2 2
5 7 7 8 8 8 8 8 9 9 8 8 8 4 4 6 7 6 6 5 5 5 6 6 5 5 5 4 5 6 6 4 5 6 5 6 6 5 4 4 4 5 3 3 2 3 3 2 1 1 1 1 1 0 1 2 1 2 1 1 1 1
5 7 7 7 8 9 9 8 8 8 8 7 7 8 8 7 6 6 7 6 5 4 4 5 5 4 4 5 5 6 5 6 5 6 7 6 5 5 5 4 4 4 4 5 4 5 3 1 2 1 1 1 1 2 3 3 2 2 3 2 1 1
6 7 7 8 9 8 8 8 9 8 7 6 7 8 7 7 7 7 6 5 6 5 6 6 6 5 4 5 5 4 5 5 6 5 6 6 4 4 4 5 5 6 5 6 4 3 4 4 3 1 2 1 2 2 1 2 2 2 1 1 1 1
8 7 8 8 8 8 8 8 8 7 10 8 8 7 7 7 6 6 7 6 6 6 6 5 4 4 4 4 4 4 4 5 4 5 5 4 4 4 5 5 4 4 4 5 5 4 4 4 4 3 1 2 1 1 0 1 0 0 0 0 1 1
10 7 8 9 8 9 7 7 7 10 12 11 9 9 9 7 6 7 7 7 7 6 5 6 6 5 5 4 4 3 4 4 4 4 3 3 4 3 3 4 5 6 5 5 5 6 6 4 3 5 5 6 5 5 3 3 3 3 3 2 2 3
9 9 8 8 7 8 7 7 7 9 11 11 10 9 10 9 8 8 7 8 7 6 6 6 6 5 4 4 4 4 4 4 5 5 5 4 4 5 5 5 6 5 5 4 5 6 4 5 5 5 5 5 5 4 4 4 1 2 5 2 3 1
10 9 9 8 6 6 6 6 8 9 8 9 10 9 8 8 7 8 7 8 8 7 6 6 5 6 4 5 4 4 4 4 4 4 4 4 4 5 5 5 4 4 4 4 4 4 5 4 4 4 4 4 5 6 6 4 5 4 4 5 5 4
8 6 6 5 4 6 5 4 7 9 8 9 9 9 7 7 6 7 7 8 8 8 7 7 6 6 6 4 3 4 4 4 3 4 4 4 4 3 4 5 4 4 4 4 4 4 4 4 4 4 4 6 5 6 5 5 4 5 5 5 4 3
5 3 3 1 2 5 6 4 5 7 7 7 9 8 8 6 7 7 6 7 7 7 7 7 7 6 5 5 4 4 5 5 4 3 3 2 3 5 4 5 5 4 4 4 4 4 4 4 5 5 4 4 5 5 5 5 5 5 5 4 2 1
7 3 3 1 0 2 5 4 5 6 7 7 8 8 7 6 6 7 6 7 7 7 7 7 6 6 5 5 4 4 4 4 4 4 2 3 2 4 4 6 4 4 4 3 4 4 3 3 4 4 4 4 6 4 4 4 4 4 4 3 4 4
6 2 4 2 2 2 0 3 5 5 6 6 7 8 8 7 6 5 6 5 7 7 6 6 7 6 6 5 5 5 4 4 3 3 2 2 2 3 4 4 5 4 4 3 3 3 3 3 2 4 4 4 4 4 3 3 4 4 4 4 4 5
Wind_Direction
118 116 113 110 111 115 122 119 116 112 107 120 134 137 127 120 120 133 125 122 107 89 77 55 97 119 126 108 98 137 146 153 157 159 162 163 158 160 161 158 160 170 185 196 203 215 236 253 263 274 285 296 305 346 316 26 36 129 148 142 134 138
132 126 126 124 122 122 121 117 115 108 108 134 177 131 99 122 133 91 117 115 89 87 93 79 101 128 142 136 126 136 153 159 157 162 163 162 158 161 164 162 160 176 190 198 206 212 249 262 266 268 274 282 299 313 311 5 42 119 128 137 140 145
124 125 124 125 130 135 130 130 124 118 125 168 229 145 128 141 89 118 102 106 94 83 90 58 109 109 224 132 127 147 152 155 157 162 161 160 164 167 165 159 165 177 189 211 216 228 251 259 266 267 276 287 292 290 302 336 122 133 133 141 140 147
132 129 128 132 136 140 136 131 128 131 150 184 206 97 164 153 106 117 122 94 80 70 91 157 66 163 169 66 33 66 146 161 158 161 160 154 166 169 167 164 168 177 185 227 232 242 248 254 253 253 255 268 273 282 286 303 129 125 128 138 145 148
134 137 141 137 135 134 126 119 119 126 147 182 170 93 176 91 117 140 124 119 113 102 119 158 141 129 145 107 102 124 172 110 98 106 136 99 106 168 145 156 161 171 196 236 254 248 259 265 247 239 236 238 251 264 274 259 130 126 131 142 149 153
141 149 147 136 137 136 129 127 122 130 136 183 111 102 172 142 136 144 146 139 135 136 145 180 149 148 171 157 156 143 142 122 111 130 107 85 170 146 180 194 172 192 209 212 231 246 232 242 249 228 231 235 237 243 255 162 124 119 117 131 151 152
142 132 109 115 124 115 116 122 127 132 146 155 103 125 203 212 164 160 177 154 135 138 145 184 167 147 177 153 159 148 146 98 49 9 32 336 262 143 179 177 182 195 200 208 231 251 260 250 217 211 213 238 240 242 222 133 128 124 131 145 161 157
133 121 109 114 113 107 117 127 141 139 149 161 145 163 202 225 186 150 169 162 138 140 149 160 199 145 164 171 167 147 95 80 142 148 165 178 203 190 167 173 179 188 173 227 252 264 265 293 219 185 182 196 239 229 236 114 148 141 143 150 161 166
132 121 120 128 124 130 132 134 133 139 157 169 154 182 180 196 185 161 104 100 113 131 143 155 170 149 115 125 111 101 99 150 152 113 97 235 254 234 214 146 82 31 121 266 331 320 334 317 282 201 182 245 219 238 205 125 136 143 143 152 164 172
137 136 138 133 134 124 139 138 148 162 173 150 162 180 161 174 181 156 128 114 62 108 116 135 130 130 124 115 104 117 145 148 112 128 147 206 219 183 165 88 105 239 247 151 258 292 336 331 331 259 186 203 221 223 217 141 151 154 152 157 165 172
135 141 143 142 145 143 145 139 151 165 158 122 131 135 149 168 196 131 139 132 141 129 114 122 126 126 91 119 150 141 130 116 132 185 191 216 216 156 147 137 150 189 234 170 215 266 280 302 325 317 283 233 252 229 210 168 150 151 155 163 163 170
147 155 155 148 146 147 148 145 152 160 143 123 125 139 149 162 227 181 132 144 144 135 139 152 153 145 145 181 164 143 143 132 157 174 143 131 85 110 152 105 115 228 240 259 193 216 219 202 287 306 335 18 340 257 216 197 158 162 160 160 165 171
153 161 156 149 149 150 145 146 155 162 141 126 128 140 157 173 189 245 172 145 140 119 122 121 107 104 140 162 150 133 142 168 172 152 121 84 110 110 72 68 59 351 324 299 257 233 234 162 321 297 28 22 24 8 295 224 183 142 161 162 162 167
155 161 165 139 127 156 145 140 150 152 137 131 147 161 173 177 177 222 198 155 123 125 139 137 145 156 110 135 129 149 158 169 166 112 116 130 132 239 78 68 21 307 267 258 240 225 164 346 289 269 61 90 61 27 30 22 354 43 159 163 164 167
151 150 151 147 157 185 141 146 149 152 150 149 152 166 170 169 163 175 174 122 115 123 130 130 99 140 133 70 62 196 147 137 103 99 112 119 129 110 110 124 99 302 301 328 322 297 162 244 278 23 66 44 86 47 39 22 30 40 48 11 168 182
126 125 122 135 150 133 134 146 151 158 155 156 157 162 164 168 169 149 147 152 144 139 144 138 153 100 97 150 147 189 179 175 120 115 119 122 137 142 140 107 156 247 208 301 27 34 33 27 25 35 23 13 54 80 43 45 52 43 74 75 68 15
125 119 113 115 115 107 112 129 144 141 162 166 160 153 157 165 162 164 144 161 155 158 158 155 128 125 129 155 149 163 164 126 112 113 112 109 158 119 112 148 155 119 110 97 58 67 53 25 14 20 351 22 38 83 96 79 63 80 58 82 99 130
118 118 117 115 109 109 105 98 94 108 115 134 148 145 151 137 134 137 146 167 175 158 156 163 139 152 155 157 179 167 123 134 131 117 84 28 350 29 119 116 91 71 72 71 64 43 47 33 31 5 10 17 13 29 67 90 113 60 71 57 36 70
123 127 128 120 107 96 98 96 98 92 84 94 82 97 114 110 114 110 121 124 93 86 125 159 157 153 146 173 178 116 152 190 199 131 127 144 255 307 46 101 125 80 60 50 42 345 119 86 72 20 31 11 340 21 354 7 356 99 101 89 54 3
134 137 128 120 114 116 117 123 101 67 68 67 63 66 63 76 69 66 64 67 79 84 75 73 119 155 156 159 157 139 159 204 278 84 133 136 150 169 191 156 121 107 114 130 251 185 106 102 64 33 353 334 331 326 312 352 332 16 64 75 67 20
148 140 133 136 137 139 138 121 94 116 126 113 96 84 76 71 75 77 68 67 75 75 63 64 59 69 54 121 171 143 131 181 236 184 183 197 118 168 194 185 153 125 123 106 236 203 68 99 92 42 14 323 313 302 297 333 303 316 343 342 13 39
147 150 152 158 160 155 152 162 154 154 131 122 107 99 90 75 81 76 72 62 51 66 85 100 77 51 63 76 92 137 148 181 194 188 192 143 168 294 146 170 142 83 59 195 242 149 192 119 68 140 133 331 333 343 311 304 295 301 305 270 302 292
163 165 171 162 148 158 153 151 117 128 118 97 95 114 113 111 92 80 62 48 40 69 93 64 67 82 71 44 52 95 88 113 141 178 149 120 126 142 111 113 108 116 112 274 265 228 174 177 149 136 120 89 56 68 321 342 341 333 292 306 310 303
174 171 159 145 120 113 107 105 106 116 106 112 120 109 102 90 81 83 76 57 51 76 67 62 72 73 75 59 57 53 73 76 67 76 105 100 118 126 126 111 113 140 149 140 64 7 57 199 160 130 94 171 189 120 136 295 318 316 339 204 333 291
173 162 148 129 121 118 106 100 101 94 96 93 84 93 95 96 104 106 92 56 59 62 67 68 64 60 69 69 62 69 75 77 75 68 78 89 93 123 140 153 144 144 161 145 124 128 7 92 98 26 144 90 45 50 211 230 88 307 337 10 347 15
166 145 140 135 131 123 122 128 125 121 122 120 120 115 126 131 121 120 120 109 82 76 69 67 66 63 62 61 50 48 58 83 78 70 77 84 87 72 59 76 151 153 139 130 136 106 79 23 89 101 95 126 176 173 163 222 102 242 323 306 348 21
166 150 147 141 135 127 125 132 135 137 139 144 143 147 132 133 129 129 116 98 98 88 91 87 71 70 64 55 54 46 40 39 76 86 76 68 64 61 55 61 64 69 76 126 122 115 153 156 89 45 35 28 28 57 132 128 187 112 71 314 323 267
172 157 156 146 139 142 139 142 138 139 140 142 138 136 134 134 127 124 117 118 106 98 86 86 87 72 68 67 65 50 43 76 77 76 75 73 71 62 51 40 59 84 79 74 92 127 150 161 153 190 149 80 37 44 19 45 83 150 158 139 262 324
176 162 164 152 146 152 147 151 149 144 134 140 131 133 131 128 130 131 121 104 96 101 97 97 102 101 82 77 70 64 55 70 85 81 82 77 73 74 76 68 57 59 64 56 67 92 100 75 79 165 154 117 68 59 30 62 43 50 109 115 271 283
182 173 166 160 153 158 158 153 149 141 138 138 130 125 122 130 131 124 125 119 108 102 101 95 95 100 88 73 80 72 64 67 85 106 109 110 102 85 70 66 69 70 61 60 40 55 80 86 72 47 69 127 109 96 74 47 358 359 359 113 141 313
183 174 167 164 158 165 163 159 147 145 143 140 138 134 130 135 127 123 128 129 126 124 110 111 105 92 98 97 80 76 68 59 68 82 90 108 104 99 79 66 57 59 60 65 52 54 48 38 48 54 54 71 86 105 110 102 78 62 92 59 28 0
177 178 171 167 161 167 162 160 140 149 145 143 141 143 144 148 147 141 142 139 135 124 126 119 114 113 102 103 106 96 81 66 68 70 78 95 105 95 86 78 68 69 68 57 50 52 55 45 37 53 58 61 72 74 62 59 61 113 72 62 88 52
185 177 173 165 160 168 162 164 145 151 150 141 141 144 150 148 153 149 148 137 137 138 138 125 134 125 140 140 132 109 102 90 74 85 82 83 89 104 107 98 90 82 78 79 75 71 60 48 61 62 74 55 63 49 38 20 42 50 65 85 84 52
190 176 162 154 151 162 174 169 145 151 152 141 143 145 150 153 156 155 150 149 147 150 152 153 149 150 165 158 156 138 134 131 124 105 90 88 98 107 106 104 95 80 82 95 84 76 69 54 50 52 62 70 55 55 43 46 53 55 50 52 45 62
341 29 69 70 135 167 177 172 144 148 148 141 142 142 148 152 155 153 155 152 154 155 155 161 154 168 158 156 152 131 132 134 135 119 103 80 68 87 106 97 99 100 94 92 94 83 69 67 54 42 49 83 68 45 47 56 59 51 56 51 71 76
74 54 16 42 254 213 179 161 142 139 145 140 143 140 139 147 156 161 162 157 161 162 162 157 157 151 166 146 147 134 131 135 131 133 139 143 118 104 117 117 116 117 117 124 104 98 98 76 53 50 67 72 61 43 43 49 54 54 49 53 45 29
71 346 183 154 80 22 287 141 149 138 137 137 144 145 147 159 159 168 160 160 150 166 158 151 154 158 156 149 148 139 139 138 136 141 152 162 139 139 125 138 141 138 155 131 119 129 118 87 60 51 58 80 87 64 41 44 48 52 36 22 31 32